Location: Liscomb Game Sanctuary
(45.1633°N, 62.5575°W)
Time: 12:32:36
(UTC-03:00)

Cosmos 2279 Rocket - Pass Details

Date: 22 February 2018
Orbit: 963 x 980 km, 82.9° (Epoch: 21 June)

Event Time Altitude Azimuth Distance (km) Brightness Sun altitude
Rises 20:20:51 0° 353° (N) 3,675 7.3 -27.5°
Reaches altitude 10° 20:23:23 10° 355° (N) 2,726 6.5 -27.9°
Enters shadow 20:28:55 67° 32° (NNE) 1,056 4.0 -28.9°
